TimeEST,TemperatureF,Dew PointF,Humidity,Sea Level PressureIn,VisibilityMPH,Wind Direction,Wind SpeedMPH,Gust SpeedMPH,PrecipitationIn,Events,Conditions,WindDirDegrees,DateUTC
12:15 AM,35.6,26.6,70,30.21,10.0,ENE,11.5,16.1,N/A,,Overcast,60,2014-01-02 05:15:00
12:35 AM,35.6,26.6,70,30.19,10.0,ENE,9.2,16.1,N/A,,Overcast,60,2014-01-02 05:35:00
12:55 AM,35.6,26.6,70,30.18,10.0,ENE,12.7,17.3,N/A,,Overcast,60,2014-01-02 05:55:00
1:15 AM,35.6,26.6,70,30.18,10.0,ENE,12.7,-,N/A,,Overcast,60,2014-01-02 06:15:00
1:35 AM,35.6,28.4,75,30.16,10.0,ENE,13.8,21.9,N/A,,Overcast,60,2014-01-02 06:35:00
1:55 AM,35.6,28.4,75,30.15,10.0,NE,13.8,20.7,N/A,,Overcast,50,2014-01-02 06:55:00
2:15 AM,37.4,28.4,70,30.15,10.0,NE,13.8,-,N/A,,Overcast,50,2014-01-02 07:15:00
2:35 AM,37.4,28.4,70,30.14,10.0,NE,10.4,-,N/A,,Overcast,50,2014-01-02 07:35:00
2:55 AM,37.4,28.4,70,30.13,10.0,ENE,11.5,-,N/A,,Overcast,60,2014-01-02 07:55:00
3:15 AM,37.4,30.2,75,30.12,10.0,NE,12.7,16.1,N/A,,Overcast,50,2014-01-02 08:15:00
3:35 AM,37.4,30.2,75,30.11,10.0,NE,11.5,20.7,N/A,,Overcast,40,2014-01-02 08:35:00
3:55 AM,37.4,28.4,70,30.11,10.0,NE,10.4,-,N/A,,Overcast,40,2014-01-02 08:55:00
4:15 AM,35.6,28.4,75,30.10,10.0,NNE,11.5,-,N/A,,Overcast,30,2014-01-02 09:15:00
4:35 AM,35.6,28.4,75,30.08,10.0,NE,13.8,-,N/A,,Overcast,40,2014-01-02 09:35:00
4:55 AM,35.6,28.4,75,30.06,10.0,NE,12.7,23.0,N/A,,Overcast,40,2014-01-02 09:55:00
5:15 AM,35.6,26.6,70,30.07,10.0,NE,13.8,23.0,N/A,,Overcast,50,2014-01-02 10:15:00
5:35 AM,33.8,26.6,75,30.07,10.0,NE,17.3,25.3,N/A,,Overcast,40,2014-01-02 10:35:00
5:55 AM,33.8,24.8,70,30.07,10.0,NE,15.0,21.9,N/A,,Overcast,40,2014-01-02 10:55:00
6:15 AM,33.8,24.8,70,30.07,10.0,NE,11.5,20.7,N/A,,Overcast,40,2014-01-02 11:15:00
6:35 AM,33.8,24.8,70,30.06,10.0,NE,15.0,19.6,N/A,,Overcast,40,2014-01-02 11:35:00
6:55 AM,33.8,26.6,75,30.05,10.0,NNE,15.0,20.7,N/A,,Overcast,30,2014-01-02 11:55:00
7:15 AM,33.8,26.6,75,30.04,10.0,NE,15.0,20.7,N/A,,Overcast,50,2014-01-02 12:15:00
7:35 AM,33.8,26.6,75,30.03,10.0,NNE,13.8,-,N/A,,Overcast,30,2014-01-02 12:35:00
7:55 AM,33.8,26.6,75,30.03,10.0,NNE,15.0,24.2,N/A,,Overcast,30,2014-01-02 12:55:00
8:15 AM,32.0,26.6,80,30.04,10.0,NE,13.8,21.9,N/A,,Overcast,40,2014-01-02 13:15:00
8:35 AM,32.0,24.8,75,30.04,10.0,NNE,13.8,24.2,N/A,,Overcast,30,2014-01-02 13:35:00
8:55 AM,32.0,24.8,75,30.03,10.0,NNE,16.1,20.7,N/A,,Overcast,30,2014-01-02 13:55:00
9:15 AM,32.0,24.8,75,30.03,10.0,NNE,17.3,23.0,N/A,,Overcast,30,2014-01-02 14:15:00
9:35 AM,32.0,24.8,75,30.01,9.0,NNE,18.4,25.3,N/A,,Overcast,30,2014-01-02 14:35:00
9:55 AM,32.0,24.8,75,30.01,8.0,NNE,12.7,21.9,N/A,,Overcast,30,2014-01-02 14:55:00
10:15 AM,32.0,24.8,75,30.00,7.0,NNE,15.0,21.9,N/A,,Overcast,30,2014-01-02 15:15:00
10:35 AM,32.0,24.8,75,29.99,9.0,NNE,13.8,20.7,N/A,,Overcast,30,2014-01-02 15:35:00
10:55 AM,30.2,24.8,80,29.97,7.0,NNE,13.8,21.9,N/A,,Overcast,30,2014-01-02 15:55:00
11:15 AM,30.2,24.8,80,29.95,5.0,NNE,13.8,19.6,N/A,,Overcast,30,2014-01-02 16:15:00
11:35 AM,30.2,24.8,80,29.93,7.0,NNE,12.7,-,N/A,,Overcast,30,2014-01-02 16:35:00
11:55 AM,30.2,24.8,80,29.91,6.0,NNE,13.8,24.2,N/A,,Overcast,30,2014-01-02 16:55:00
12:15 PM,30.2,24.8,80,29.89,9.0,NNE,15.0,20.7,N/A,,Overcast,30,2014-01-02 17:15:00
12:35 PM,30.2,24.8,80,29.89,7.0,NNE,13.8,24.2,N/A,,Overcast,20,2014-01-02 17:35:00
12:55 PM,30.2,24.8,80,29.88,7.0,North,12.7,19.6,N/A,,Overcast,10,2014-01-02 17:55:00
1:15 PM,30.2,24.8,80,29.87,5.0,NNE,13.8,20.7,N/A,,Overcast,30,2014-01-02 18:15:00
1:35 PM,30.2,24.8,80,29.85,5.0,NNE,13.8,17.3,N/A,,Overcast,30,2014-01-02 18:35:00
1:55 PM,30.2,24.8,80,29.84,5.0,NNE,15.0,20.7,N/A,,Overcast,20,2014-01-02 18:55:00
2:15 PM,28.4,24.8,86,29.83,5.0,NNE,15.0,20.7,N/A,,Overcast,20,2014-01-02 19:15:00
2:35 PM,28.4,24.8,86,29.83,4.0,NNE,11.5,17.3,N/A,,Overcast,20,2014-01-02 19:35:00
2:55 PM,28.4,24.8,86,29.81,4.0,NNE,12.7,-,N/A,,Overcast,30,2014-01-02 19:55:00
3:15 PM,28.4,24.8,86,29.80,4.0,NNE,11.5,20.7,N/A,,Overcast,20,2014-01-02 20:15:00
3:35 PM,28.4,23.0,80,29.81,5.0,NNE,11.5,18.4,N/A,,Overcast,20,2014-01-02 20:35:00
3:55 PM,28.4,23.0,80,29.79,5.0,NNE,15.0,21.9,N/A,,Overcast,20,2014-01-02 20:55:00
4:15 PM,28.4,23.0,80,29.79,5.0,NNE,12.7,18.4,N/A,,Overcast,30,2014-01-02 21:15:00
4:35 PM,28.4,24.8,86,29.77,5.0,NNE,11.5,18.4,N/A,,Overcast,20,2014-01-02 21:35:00
4:55 PM,28.4,23.0,80,29.78,7.0,NNE,12.7,17.3,N/A,,Overcast,20,2014-01-02 21:55:00
5:15 PM,28.4,23.0,80,29.76,7.0,NE,12.7,-,N/A,,Overcast,40,2014-01-02 22:15:00
5:35 PM,28.4,23.0,80,29.76,5.0,NNE,16.1,19.6,N/A,,Overcast,20,2014-01-02 22:35:00
5:55 PM,28.4,23.0,80,29.77,5.0,NNE,11.5,17.3,N/A,,Overcast,20,2014-01-02 22:55:00
6:15 PM,28.4,23.0,80,29.76,4.0,North,11.5,-,N/A,,Overcast,360,2014-01-02 23:15:00
6:35 PM,28.4,23.0,80,29.73,3.0,NNE,13.8,18.4,N/A,,Overcast,30,2014-01-02 23:35:00
6:55 PM,28.4,23.0,80,29.71,2.0,NNE,11.5,-,N/A,,Overcast,30,2014-01-02 23:55:00
7:15 PM,28.4,23.0,80,29.70,2.0,NNE,12.7,18.4,N/A,,Overcast,30,2014-01-03 00:15:00
7:35 PM,28.4,23.0,80,29.69,1.8,NNE,12.7,20.7,N/A,,Overcast,30,2014-01-03 00:35:00
7:55 PM,28.4,21.2,74,29.68,1.2,NNE,12.7,18.4,N/A,,Overcast,30,2014-01-03 00:55:00
8:15 PM,26.6,21.2,80,29.68,1.5,NNE,13.8,19.6,N/A,,Overcast,20,2014-01-03 01:15:00
8:35 PM,26.6,21.2,80,29.66,1.8,NNE,13.8,19.6,N/A,,Overcast,30,2014-01-03 01:35:00
8:55 PM,26.6,21.2,80,29.65,1.2,NNE,13.8,17.3,0.01,,Overcast,20,2014-01-03 01:55:00
9:15 PM,26.6,19.4,74,29.65,1.0,NNE,13.8,21.9,N/A,,Overcast,20,2014-01-03 02:15:00
9:35 PM,26.6,19.4,74,29.65,1.5,NNE,13.8,20.7,N/A,,Overcast,20,2014-01-03 02:35:00
9:55 PM,26.6,19.4,74,29.63,0.8,NNE,17.3,23.0,N/A,,Overcast,20,2014-01-03 02:55:00
10:15 PM,24.8,19.4,80,29.62,0.5,NNE,15.0,19.6,N/A,,Overcast,20,2014-01-03 03:15:00
10:35 PM,24.8,19.4,80,29.62,0.5,NNE,13.8,20.7,N/A,,Overcast,30,2014-01-03 03:35:00
10:55 PM,24.8,17.6,74,29.62,0.5,NNE,12.7,20.7,0.01,,Overcast,20,2014-01-03 03:55:00
11:15 PM,24.8,17.6,74,29.61,0.5,NNE,13.8,20.7,N/A,,Overcast,30,2014-01-03 04:15:00
11:35 PM,24.8,17.6,74,29.61,0.5,NNE,13.8,21.9,N/A,,Overcast,30,2014-01-03 04:35:00
11:55 PM,23.0,17.6,80,29.61,0.8,NNE,12.7,-,N/A,,Overcast,30,2014-01-03 04:55:00